Meteo pe oră la Dziemierzyce

Astăzi, 3 Martie, Miercuri

Timp Temperatura Precipitaţii Vânt Presiune Umiditate
00:00 +4°C° 0 mm 1 m/s 751 mmHg 84%
01:00 +4°C° 0 mm 1 m/s 751 mmHg 86%
02:00 +4°C° 0 mm 1 m/s 751 mmHg 86%
03:00 +3°C° 0 mm 1 m/s 750 mmHg 86%
04:00 +3°C° 0 mm 1 m/s 750 mmHg 86%
05:00 +3°C° 0 mm 1 m/s 750 mmHg 85%
06:00 +3°C° 0 mm 1 m/s 750 mmHg 85%
07:00 +3°C° 0 mm 1 m/s 750 mmHg 85%
08:00 +5°C° 0 mm 1 m/s 750 mmHg 78%
09:00 +7°C° 0 mm 1 m/s 749 mmHg 70%
10:00 +9°C° 0 mm 1 m/s 749 mmHg 63%
11:00 +10°C° 0 mm 1 m/s 749 mmHg 58%
12:00 +11°C° 0 mm 1 m/s 748 mmHg 53%
13:00 +13°C° 0 mm 1 m/s 748 mmHg 48%
14:00 +13°C° 0 mm 1 m/s 747 mmHg 49%
15:00 +13°C° 0 mm 1 m/s 747 mmHg 50%
16:00 +13°C° 0 mm 1 m/s 746 mmHg 52%
17:00 +11°C° 0 mm 1 m/s 746 mmHg 56%
18:00 +9°C° 0 mm 2 m/s 746 mmHg 60%
19:00 +7°C° 0 mm 2 m/s 745 mmHg 64%
20:00 +7°C° 0 mm 3 m/s 745 mmHg 67%
21:00 +5°C° 0 mm 4 m/s 745 mmHg 69%
22:00 +5°C° 0 mm 4 m/s 744 mmHg 72%
23:00 +5°C° 0 mm 4 m/s 744 mmHg 73%

Mâine, 4 Martie, Joi

Timp Temperatura Precipitaţii Vânt Presiune Umiditate
00:00 +4°C° 0 mm 4 m/s 743 mmHg 74%
01:00 +4°C° 0 mm 4 m/s 743 mmHg 75%
02:00 +4°C° 0 mm 4 m/s 742 mmHg 76%
03:00 +3°C° 0 mm 4 m/s 742 mmHg 77%
04:00 +3°C° 0 mm 4 m/s 741 mmHg 77%
05:00 +3°C° 0 mm 4 m/s 741 mmHg 77%
06:00 +2°C° 0 mm 5 m/s 741 mmHg 76%
07:00 +2°C° 0 mm 5 m/s 740 mmHg 75%
08:00 +5°C° 0 mm 5 m/s 740 mmHg 72%
09:00 +7°C° 0 mm 6 m/s 740 mmHg 68%
10:00 +8°C° 0 mm 7 m/s 739 mmHg 64%
11:00 +9°C° 0 mm 7 m/s 739 mmHg 61%
12:00 +10°C° 0 mm 7 m/s 739 mmHg 58%
13:00 +11°C° 0 mm 7 m/s 738 mmHg 55%
14:00 +10°C° 0 mm 6 m/s 738 mmHg 57%
15:00 +10°C° 0 mm 6 m/s 737 mmHg 59%
16:00 +10°C° 0 mm 5 m/s 737 mmHg 61%
17:00 +9°C° 0.2 mm 5 m/s 737 mmHg 69%
18:00 +8°C° 0.2 mm 4 m/s 736 mmHg 77%
19:00 +7°C° 0.2 mm 4 m/s 736 mmHg 85%
20:00 +6°C° 1.1 mm 4 m/s 736 mmHg 87%
21:00 +7°C° 1.1 mm 3 m/s 736 mmHg 89%
22:00 +5°C° 1.1 mm 3 m/s 736 mmHg 91%
23:00 +4°C° 1.2 mm 3 m/s 736 mmHg 92%

Poimâine, 5 Martie, Vineri

Timp Temperatura Precipitaţii Vânt Presiune Umiditate
00:00 +3°C° 1.2 mm 4 m/s 736 mmHg 93%
01:00 +1°C° 1.2 mm 4 m/s 736 mmHg 94%
02:00 0°C° 0.6 mm 4 m/s 736 mmHg 92%
03:00 0°C° 0.6 mm 4 m/s 736 mmHg 91%
04:00 +1°C° 0.6 mm 3 m/s 736 mmHg 89%
05:00 -1°C° 0.1 mm 4 m/s 737 mmHg 88%
06:00 -1°C° 0.1 mm 4 m/s 738 mmHg 88%
07:00 -2°C° 0.1 mm 4 m/s 738 mmHg 87%
08:00 -2°C° 0 mm 4 m/s 739 mmHg 82%
09:00 -1°C° 0 mm 4 m/s 739 mmHg 78%
10:00 -1°C° 0 mm 5 m/s 740 mmHg 73%
11:00 -1°C° 0 mm 4 m/s 740 mmHg 66%
12:00 0°C° 0 mm 4 m/s 741 mmHg 59%
13:00 +1°C° 0 mm 4 m/s 741 mmHg 52%
14:00 +1°C° 0 mm 4 m/s 741 mmHg 50%
15:00 +1°C° 0 mm 4 m/s 741 mmHg 48%
16:00 +1°C° 0 mm 4 m/s 742 mmHg 47%
17:00 0°C° 0 mm 4 m/s 742 mmHg 52%
18:00 0°C° 0 mm 3 m/s 743 mmHg 58%
19:00 -1°C° 0 mm 2 m/s 744 mmHg 64%
20:00 -1°C° 0 mm 2 m/s 745 mmHg 66%
21:00 -1°C° 0 mm 2 m/s 745 mmHg 67%
22:00 -1°C° 0 mm 2 m/s 746 mmHg 69%
23:00 -2°C° 0 mm 2 m/s 746 mmHg 69%

6 Martie, Sâmbătă

Timp Temperatura Precipitaţii Vânt Presiune Umiditate
00:00 -2°C° 0 mm 2 m/s 746 mmHg 69%
01:00 -2°C° 0 mm 2 m/s 747 mmHg 70%
02:00 -2°C° 0 mm 2 m/s 747 mmHg 69%
03:00 -2°C° 0 mm 2 m/s 747 mmHg 69%
04:00 -2°C° 0 mm 2 m/s 748 mmHg 69%
05:00 -2°C° 0 mm 2 m/s 748 mmHg 67%
06:00 -2°C° 0 mm 2 m/s 749 mmHg 65%
07:00 -2°C° 0 mm 2 m/s 749 mmHg 63%
08:00 -1°C° 0 mm 2 m/s 749 mmHg 57%
09:00 -1°C° 0 mm 2 m/s 750 mmHg 51%
10:00 0°C° 0 mm 3 m/s 750 mmHg 45%
11:00 +1°C° 0 mm 3 m/s 750 mmHg 42%
12:00 +1°C° 0 mm 3 m/s 750 mmHg 40%
13:00 +2°C° 0 mm 3 m/s 750 mmHg 37%
14:00 +1°C° 0 mm 3 m/s 749 mmHg 40%
15:00 +1°C° 0 mm 3 m/s 749 mmHg 42%
16:00 +1°C° 0 mm 3 m/s 749 mmHg 45%
17:00 0°C° 0 mm 3 m/s 749 mmHg 50%
18:00 -1°C° 0 mm 2 m/s 749 mmHg 55%
19:00 -2°C° 0 mm 2 m/s 749 mmHg 61%
20:00 -2°C° 0 mm 2 m/s 749 mmHg 62%
21:00 -2°C° 0 mm 3 m/s 749 mmHg 63%
22:00 -2°C° 0 mm 3 m/s 749 mmHg 64%
23:00 -2°C° 0 mm 3 m/s 749 mmHg 64%

7 Martie, Duminică

Timp Temperatura Precipitaţii Vânt Presiune Umiditate
00:00 -3°C° 0 mm 4 m/s 748 mmHg 64%
01:00 -3°C° 0 mm 4 m/s 748 mmHg 64%
02:00 -3°C° 0 mm 4 m/s 747 mmHg 62%
03:00 -3°C° 0 mm 4 m/s 747 mmHg 61%
04:00 -4°C° 0 mm 5 m/s 746 mmHg 59%
05:00 -4°C° 0 mm 5 m/s 746 mmHg 58%
06:00 -4°C° 0 mm 5 m/s 746 mmHg 56%
07:00 -4°C° 0 mm 6 m/s 745 mmHg 54%
08:00 -3°C° 0 mm 6 m/s 745 mmHg 49%
09:00 -1°C° 0 mm 7 m/s 745 mmHg 45%
10:00 0°C° 0 mm 7 m/s 745 mmHg 40%
11:00 +2°C° 0 mm 7 m/s 744 mmHg 40%
12:00 +2°C° 0 mm 7 m/s 744 mmHg 39%
13:00 +3°C° 0 mm 7 m/s 743 mmHg 39%
14:00 +3°C° 0 mm 6 m/s 742 mmHg 42%
15:00 +2°C° 0 mm 6 m/s 742 mmHg 44%
16:00 +2°C° 0 mm 5 m/s 741 mmHg 47%
17:00 +1°C° 0 mm 5 m/s 741 mmHg 52%
18:00 0°C° 0 mm 4 m/s 741 mmHg 57%
19:00 -1°C° 0 mm 3 m/s 741 mmHg 62%
20:00 -1°C° 0 mm 3 m/s 741 mmHg 66%
21:00 -1°C° 0 mm 3 m/s 741 mmHg 69%
22:00 -2°C° 0 mm 3 m/s 741 mmHg 72%
23:00 -2°C° 0 mm 3 m/s 741 mmHg 73%

8 Martie, Luni

Timp Temperatura Precipitaţii Vânt Presiune Umiditate
00:00 -2°C° 0 mm 3 m/s 741 mmHg 75%
01:00 -2°C° 0 mm 3 m/s 740 mmHg 76%
02:00 -2°C° 0 mm 3 m/s 740 mmHg 76%
03:00 -2°C° 0 mm 3 m/s 740 mmHg 75%
04:00 -2°C° 0 mm 3 m/s 739 mmHg 75%
05:00 -3°C° 0 mm 4 m/s 739 mmHg 75%
06:00 -3°C° 0 mm 4 m/s 739 mmHg 75%
07:00 -2°C° 0 mm 5 m/s 739 mmHg 75%
08:00 -2°C° 0 mm 5 m/s 739 mmHg 76%
09:00 -1°C° 0 mm 5 m/s 740 mmHg 78%
10:00 -1°C° 0 mm 6 m/s 740 mmHg 79%
11:00 0°C° 0.1 mm 5 m/s 740 mmHg 81%
12:00 0°C° 0.1 mm 5 m/s 740 mmHg 83%
13:00 0°C° 0.1 mm 5 m/s 740 mmHg 85%
14:00 0°C° 0.2 mm 5 m/s 741 mmHg 82%
15:00 -1°C° 0.2 mm 4 m/s 741 mmHg 80%
16:00 -1°C° 0.2 mm 4 m/s 741 mmHg 77%
17:00 -1°C° 0 mm 3 m/s 741 mmHg 76%
18:00 -2°C° 0 mm 3 m/s 742 mmHg 74%
19:00 -3°C° 0 mm 2 m/s 743 mmHg 72%
20:00 -3°C° 0 mm 2 m/s 743 mmHg 73%
21:00 -3°C° 0 mm 2 m/s 744 mmHg 74%
22:00 -4°C° 0 mm 2 m/s 744 mmHg 75%
23:00 -4°C° 0 mm 2 m/s 745 mmHg 77%
Arată mai mult

Formular de consimțământ

Meteoprog și furnizorii noștri de servicii pot stoca și accesa date personale, precum cookies, identificatori de dispozitiv sau alte tehnologii similare pe dispozitivul dumneavoastră și procesa astfel de date pentru a personaliza conținutul și reclamele, dar și pentru a oferi caracteristici de social media și pentru a analiza traficul.

  • Stocarea și/sau accesarea informațiilor pe dispozitivul dumneavoastră

    Cookies, identificatori de dispozitiv sau alte informații pot fi stocate sau accesate pe dispozitiv în scopurile indicate mai sus.

  • Reclame și conținut personalizat, evaluarea reclamelor și a conținutului, informații despre audiențe și dezvoltarea produselor

    Reclamele și conținutul pot fi personalizate pe baza unui profil. Pot fi adăugate date suplimentare pentru a personaliza mai bine reclamele și conținutul. Performanța reclamelor și conținutului poate fi măsurată. Pot fi obținute informații despre utilizatorii care au văzut reclamele și conținutul. Aceste date pot fi utilizate pentru a dezvolta sau îmbunătăți experiența utilizatorilor, sistemele și software-ul.

Dând clic pe ‘Sunt de acord’, permiteți utilizarea cookie-urilor menționate, a identificatorilor de dispozitiv, balizelor web sau altor tehnologii similare. Setările pot fi modificate din browser-ul dispozitivului dumneavoastră.

În anumite scopuri, interesele legitime pot prima asupra consimțământului. Puteți citi mai multe informații în acest sens în Politica privind Confidențialitatea Datelor și Cookie.